#timestamp,LO_Frequency,Hit 
1501941615.1,286046967.6,N
1501941616.0,286046967.6,N
1501941635.8,286046965.7,N
1501941655.8,286046966.0,N
1501941675.6,286046964.8,N
1501941695.4,286046964.8,N
1501941715.3,286046965.8,N
1501941735.1,286046965.0,N
1501941755.8,286046962.9,N
1501941775.1,286046963.6,N
1501941776.0,286046963.6,N
1501941795.8,286046963.7,N
1501941815.7,286046965.3,N
1501941835.5,286046965.2,N
1501941855.3,286046965.1,N
1501941875.1,286046963.0,N
1501941895.9,286046961.7,N
1501941915.7,286046964.0,N
1501941935.5,286046961.7,N
1501941955.4,286046961.8,N
1501941975.2,286046962.1,N
1501941995.0,286046962.3,N
1501941995.9,286046962.3,N
1501942015.8,286046962.5,N
1501942035.6,286046960.5,N
1501942055.4,286046960.6,N
1501942075.3,286046960.7,N
1501942095.1,286046961.2,N
1501942096.0,286046961.2,N
1501942115.8,286046960.5,N
1501942135.7,286046961.0,N
1501942155.5,286046960.9,N
1501942175.3,286046956.5,N
1501942195.1,286046959.4,N
1501942215.9,286046958.8,N
1501942235.7,286046959.1,N
1501942255.5,286046956.8,N
1501942275.4,286046956.8,N
1501942295.2,286046957.6,N
1501942315.0,286046957.4,N
1501942315.9,286046957.4,N
1501942335.8,286046955.8,N
1501942355.6,286046956.1,N
1501942375.4,286046956.2,N
1501942395.3,286046954.2,N
1501942415.1,286046953.4,N
1501942416.0,286046953.4,N
1501942435.8,286046953.8,N
1501942455.6,286046954.6,N
1501942475.5,286046951.7,N
1501942495.3,286046954.3,N
1501942515.1,286046953.9,N
1501942535.9,286046954.7,N
1501942555.7,286046952.4,N
1501942575.5,286046954.4,N
1501942595.4,286046954.3,N
1501942615.2,286046954.6,N
1501942635.0,286046954.7,N
1501942635.9,286046954.7,N
1501942655.8,286046950.1,N
1501942675.6,286046952.5,N
1501942695.4,286046952.8,N
1501942715.2,286046950.1,N
1501942735.1,286046951.0,N
1501942736.0,286046951.0,N
1501942755.8,286046950.1,N
1501942775.6,286046952.6,N
1501942795.5,286046950.7,N
1501942815.3,286046948.8,N
1501942835.1,286046950.8,N
1501942855.9,286046950.3,N
1501942875.7,286046950.1,N
1501942895.5,286046948.7,N
1501942915.4,286046949.1,N
1501942935.2,286046948.7,N
1501942955.0,286046949.9,N
1501942955.9,286046949.9,N
1501942975.8,286046947.1,N
1501942995.6,286046947.4,N
1501943015.4,286046949.6,N
1501943035.2,286046949.5,N
1501943055.1,286046947.1,N
1501943056.0,286046947.1,N
1501943075.8,286046947.0,N
1501943095.6,286046949.6,N
1501943115.5,286046948.2,N
1501943135.3,286046949.6,N
1501943155.1,286046945.3,N
1501943175.9,286046948.1,N
1501943195.7,286046945.8,N
1501943215.5,286046947.8,N
1501943235.4,286046945.4,N
1501943255.2,286046945.6,N
1501943275.0,286046948.4,N
1501943275.9,286046948.4,N
1501943295.8,286046948.4,N
1501943315.6,286046948.4,N
1501943335.4,286046948.1,N
1501943355.2,286046945.6,N
1501943375.1,286046946.4,N
1501943376.0,286046946.4,N
1501943395.8,286046946.2,N
1501943415.6,286046946.4,N
1501943435.5,286046946.0,N
1501943455.3,286046945.9,N
1501943475.1,286046946.5,N
1501943495.9,286046946.2,N
1501943515.7,286046943.7,N
1501943535.5,286046945.5,N
1501943555.4,286046945.5,N
1501943575.2,286046943.7,N
1501943595.0,286046945.9,N
1501943595.9,286046945.9,N
1501943615.8,286046946.2,N
1501943635.6,286046943.9,N
1501943655.4,286046946.8,N
1501943675.2,286046946.0,N
1501943695.1,286046946.1,N
1501943696.0,286046946.1,N
1501943715.8,286046945.7,N
1501943735.6,286046946.3,N
1501943755.5,286046946.8,N
1501943775.3,286046944.9,N
1501943795.1,286046945.1,N
1501943815.9,286046944.7,N
1501943835.7,286046944.7,N
1501943855.5,286046944.6,N
1501943875.4,286046942.1,N
1501943895.2,286046942.1,N
1501943915.0,286046942.7,N
1501943915.9,286046942.7,N
1501943935.7,286046942.6,N
1501943955.6,286046944.6,N
1501943975.4,286046942.9,N
1501943995.2,286046944.8,N
1501944015.1,286046942.1,N
1501944016.0,286046942.1,N
1501944035.8,286046945.0,N
1501944055.6,286046943.2,N
1501944075.5,286046943.6,N
1501944095.3,286046942.2,N
1501944115.1,286046943.4,N
1501944135.9,286046942.8,N
1501944155.7,286046942.6,N
1501944175.5,286046942.8,N
1501944195.4,286046942.4,N
1501944215.2,286046942.7,N
1501944235.0,286046945.1,N
1501944235.9,286046945.1,N
1501944255.7,286046943.1,N
1501944275.6,286046943.2,N
1501944295.4,286046941.0,N
1501944315.2,286046942.6,N
1501944335.1,286046943.5,N
1501944336.0,286046943.5,N
1501944355.8,286046941.2,N
1501944375.6,286046943.6,N
1501944395.5,286046941.2,N
1501944415.3,286046943.2,N
1501944435.1,286046941.0,N
1501944455.9,286046941.0,N
1501944475.7,286046941.1,N
1501944495.5,286046941.3,N
1501944515.3,286046941.9,N
1501944535.2,286046941.8,N
1501944555.0,286046939.3,N
1501944555.9,286046939.3,N
1501944575.7,286046939.8,N
1501944595.6,286046939.8,N
1501944615.4,286046939.8,N
1501944635.2,286046939.8,N
1501944655.1,286046940.1,N
1501944656.0,286046940.1,N
1501944675.8,286046940.2,N
1501944695.6,286046937.7,N
1501944715.5,286046940.2,N
1501944735.3,286046940.4,N
1501944755.1,286046940.2,N
1501944775.8,286046940.3,N
1501944795.7,286046937.3,N
1501944815.5,286046938.8,N
1501944835.3,286046938.1,N
1501944855.2,286046940.3,N
1501944875.9,286046937.4,N
1501944895.7,286046937.6,N
1501944915.6,286046936.1,N
1501944935.4,286046938.6,N
1501944955.2,286046938.5,N
1501944975.1,286046935.7,N
1501944976.0,286046935.7,N
1501944995.8,286046936.2,N
1501945015.6,286046935.7,N
1501945035.4,286046938.5,N
1501945055.3,286046938.8,N
1501945075.1,286046938.4,N
1501945095.8,286046938.3,N
1501945115.7,286046936.1,N
1501945135.5,286046936.9,N
1501945155.3,286046936.5,N
1501945175.2,286046935.9,N
1501945195.9,286046935.9,N
